TimeMDT,TemperatureF,Dew PointF,Humidity,Sea Level PressureIn,VisibilityMPH,Wind Direction,Wind SpeedMPH,Gust SpeedMPH,PrecipitationIn,Events,Conditions,WindDirDegrees,DateUTC
12:15 AM,51.8,32.0,47,29.87,10.0,South,3.5,-,N/A,,Clear,170,2012-10-20 06:15:00
12:35 AM,53.6,28.4,38,29.86,10.0,WSW,3.5,-,N/A,,Clear,250,2012-10-20 06:35:00
12:55 AM,51.8,26.6,38,29.87,10.0,Calm,Calm,-,N/A,,Clear,0,2012-10-20 06:55:00
1:15 AM,48.2,26.6,43,29.87,10.0,NE,3.5,-,N/A,,Clear,40,2012-10-20 07:15:00
1:35 AM,46.4,26.6,46,29.87,10.0,ENE,6.9,-,N/A,,Clear,60,2012-10-20 07:35:00
1:55 AM,50.0,26.6,40,29.86,10.0,NNE,5.8,-,N/A,,Clear,30,2012-10-20 07:55:00
2:15 AM,53.6,24.8,33,29.86,10.0,NNE,3.5,-,N/A,,Clear,30,2012-10-20 08:15:00
2:35 AM,48.2,24.8,40,29.86,10.0,South,8.1,-,N/A,,Clear,170,2012-10-20 08:35:00
2:55 AM,46.4,32.0,57,29.85,10.0,Calm,Calm,-,N/A,,Clear,0,2012-10-20 08:55:00
3:15 AM,44.6,28.4,53,29.85,10.0,South,8.1,-,N/A,,Clear,190,2012-10-20 09:15:00
3:55 AM,50.0,24.8,37,29.85,10.0,Calm,Calm,-,N/A,,Clear,0,2012-10-20 09:55:00
4:15 AM,50.0,24.8,37,29.84,10.0,SSE,4.6,-,N/A,,Clear,150,2012-10-20 10:15:00
4:35 AM,46.4,24.8,43,29.85,10.0,Calm,Calm,-,N/A,,Clear,0,2012-10-20 10:35:00
4:55 AM,46.4,24.8,43,29.85,10.0,NW,8.1,-,N/A,,Clear,310,2012-10-20 10:55:00
5:15 AM,44.6,24.8,46,29.84,10.0,Calm,Calm,-,N/A,,Clear,0,2012-10-20 11:15:00
5:35 AM,44.6,26.6,49,29.84,10.0,Calm,Calm,-,N/A,,Clear,0,2012-10-20 11:35:00
5:55 AM,41.0,26.6,57,29.85,10.0,NW,4.6,-,N/A,,Clear,320,2012-10-20 11:55:00
6:15 AM,42.8,28.4,57,29.85,10.0,NE,5.8,-,N/A,,Clear,50,2012-10-20 12:15:00
6:35 AM,44.6,24.8,46,29.84,10.0,East,3.5,-,N/A,,Clear,80,2012-10-20 12:35:00
6:55 AM,39.2,24.8,56,29.85,10.0,North,3.5,-,N/A,,Clear,350,2012-10-20 12:55:00
7:15 AM,42.8,24.8,49,29.85,10.0,North,5.8,-,N/A,,Clear,350,2012-10-20 13:15:00
7:35 AM,42.8,24.8,49,29.86,10.0,NNE,6.9,-,N/A,,Clear,30,2012-10-20 13:35:00
7:55 AM,44.6,26.6,49,29.88,10.0,North,6.9,-,N/A,,Clear,360,2012-10-20 13:55:00
8:15 AM,46.4,26.6,46,29.88,10.0,North,4.6,-,N/A,,Clear,10,2012-10-20 14:15:00
8:35 AM,46.4,28.4,50,29.88,10.0,North,6.9,-,N/A,,Clear,350,2012-10-20 14:35:00
8:55 AM,48.2,28.4,46,29.88,10.0,South,4.6,-,N/A,,Clear,190,2012-10-20 14:55:00
9:15 AM,50.0,30.2,47,29.88,10.0,Calm,Calm,-,N/A,,Clear,0,2012-10-20 15:15:00
9:35 AM,51.8,33.8,50,29.87,10.0,South,6.9,-,N/A,,Clear,180,2012-10-20 15:35:00
9:55 AM,53.6,30.2,41,29.88,10.0,Calm,Calm,-,N/A,,Clear,0,2012-10-20 15:55:00
10:15 AM,53.6,33.8,47,29.87,10.0,SSW,4.6,-,N/A,,Clear,210,2012-10-20 16:15:00
10:35 AM,55.4,30.2,38,29.86,10.0,South,5.8,-,N/A,,Clear,170,2012-10-20 16:35:00
10:55 AM,57.2,28.4,33,29.85,10.0,SE,3.5,-,N/A,,Clear,140,2012-10-20 16:55:00
11:15 AM,60.8,28.4,29,29.83,10.0,SE,8.1,-,N/A,,Clear,140,2012-10-20 17:15:00
11:55 AM,62.6,28.4,27,29.80,10.0,SSE,10.4,-,N/A,,Clear,150,2012-10-20 17:55:00
12:15 PM,64.4,28.4,26,29.79,10.0,South,10.4,-,N/A,,Clear,170,2012-10-20 18:15:00
12:35 PM,66.2,30.2,26,29.78,10.0,SSE,9.2,-,N/A,,Clear,150,2012-10-20 18:35:00
12:55 PM,64.4,30.2,28,29.76,10.0,ESE,12.7,-,N/A,,Clear,110,2012-10-20 18:55:00
1:15 PM,66.2,32.0,28,29.77,10.0,ENE,10.4,-,N/A,,Clear,70,2012-10-20 19:15:00
1:35 PM,66.2,32.0,28,29.76,10.0,East,6.9,-,N/A,,Clear,100,2012-10-20 19:35:00
1:55 PM,68.0,32.0,26,29.75,10.0,ESE,4.6,-,N/A,,Clear,110,2012-10-20 19:55:00
2:15 PM,71.6,28.4,20,29.74,10.0,South,11.5,-,N/A,,Clear,190,2012-10-20 20:15:00
2:35 PM,73.4,26.6,18,29.74,10.0,East,5.8,-,N/A,,Clear,90,2012-10-20 20:35:00
2:55 PM,69.8,33.8,27,29.73,10.0,ENE,6.9,-,N/A,,Clear,70,2012-10-20 20:55:00
3:15 PM,71.6,32.0,23,29.73,10.0,East,3.5,-,N/A,,Clear,80,2012-10-20 21:15:00
3:35 PM,69.8,33.8,27,29.73,10.0,Calm,Calm,-,N/A,,Clear,0,2012-10-20 21:35:00
3:55 PM,71.6,28.4,20,29.73,10.0,SE,4.6,-,N/A,,Clear,140,2012-10-20 21:55:00
4:15 PM,69.8,26.6,20,29.72,10.0,SE,10.4,-,N/A,,Clear,140,2012-10-20 22:15:00
4:35 PM,69.8,26.6,20,29.72,10.0,SE,3.5,-,N/A,,Clear,140,2012-10-20 22:35:00
4:55 PM,68.0,26.6,21,29.71,10.0,ESE,6.9,-,N/A,,Clear,110,2012-10-20 22:55:00
5:15 PM,68.0,28.4,23,29.71,10.0,Calm,Calm,-,N/A,,Clear,0,2012-10-20 23:15:00
5:35 PM,69.8,30.2,23,29.72,10.0,WNW,4.6,-,N/A,,Clear,290,2012-10-20 23:35:00
5:55 PM,64.4,33.8,32,29.71,10.0,Calm,Calm,-,N/A,,Clear,0,2012-10-20 23:55:00
6:15 PM,60.8,33.8,36,29.71,10.0,East,4.6,-,N/A,,Clear,100,2012-10-21 00:15:00
6:35 PM,60.8,28.4,29,29.72,10.0,NE,3.5,-,N/A,,Clear,50,2012-10-21 00:35:00
6:55 PM,60.8,26.6,27,29.72,10.0,SE,3.5,-,N/A,,Clear,130,2012-10-21 00:55:00
7:15 PM,59.0,26.6,29,29.73,10.0,North,3.5,-,N/A,,Clear,360,2012-10-21 01:15:00
7:35 PM,55.4,28.4,36,29.74,10.0,North,3.5,-,N/A,,Clear,360,2012-10-21 01:35:00
7:55 PM,57.2,30.2,36,29.73,10.0,SSW,3.5,-,N/A,,Clear,200,2012-10-21 01:55:00
8:15 PM,51.8,28.4,41,29.74,10.0,North,3.5,-,N/A,,Clear,360,2012-10-21 02:15:00
8:35 PM,55.4,30.2,38,29.74,10.0,NW,3.5,-,N/A,,Clear,310,2012-10-21 02:35:00
8:55 PM,50.0,28.4,43,29.74,10.0,Calm,Calm,-,N/A,,Clear,0,2012-10-21 02:55:00
9:15 PM,51.8,30.2,44,29.74,10.0,NNW,5.8,-,N/A,,Clear,340,2012-10-21 03:15:00
9:35 PM,50.0,30.2,47,29.74,10.0,NNE,3.5,-,N/A,,Clear,20,2012-10-21 03:35:00
9:55 PM,51.8,30.2,44,29.74,10.0,North,8.1,-,N/A,,Clear,360,2012-10-21 03:55:00
10:15 PM,51.8,30.2,44,29.74,10.0,North,9.2,-,N/A,,Clear,360,2012-10-21 04:15:00
10:35 PM,51.8,30.2,44,29.75,10.0,NNE,4.6,-,N/A,,Clear,20,2012-10-21 04:35:00
10:55 PM,50.0,28.4,43,29.75,10.0,North,6.9,-,N/A,,Clear,10,2012-10-21 04:55:00
11:15 PM,48.2,28.4,46,29.75,10.0,NNE,5.8,-,N/A,,Clear,30,2012-10-21 05:15:00
11:35 PM,48.2,28.4,46,29.75,10.0,North,8.1,-,N/A,,Clear,10,2012-10-21 05:35:00
11:55 PM,44.6,28.4,53,29.75,10.0,Calm,Calm,-,N/A,,Clear,0,2012-10-21 05:55:00